Weather History for Kill Devil Hills, NC

Change the Weather History Date:

Tuesday, December 13, 2011

  Actual Average (KMQI) Record (KMQI)
Temperature  
Mean Temperature 48 °F -  
Max Temperature 52 °F 53 °F 71 °F (1979)
Min Temperature 45 °F 41 °F 22 °F (1973)
Degree Days  
Heating Degree Days 16    
Moisture  
Dew Point 41 °F    
Average Humidity 74    
Maximum Humidity 94    
Minimum Humidity 48    
Precipitation  
Precipitation 0.00 in - - ()
Sea Level Pressure  
Sea Level Pressure 30.37 in    
Wind  
Wind Speed 7 mph (NNW)    
Max Wind Speed 12 mph    
Max Gust Speed 18 mph    
Visibility 9 miles    
Events      
Averages and records for this station are not official NWS values.
T = Trace of Precipitation, MM = Missing Value Source: NWS Daily Summary

Daily Weather History Graph

Daily Weather History Graph

Search for Another Location

Airport:

Trip Planner

Search our weather history database for the weather conditions in past years. The results will help you decide how hot, cold, wet, or windy it might be!

Date:

Astronomy

Dec. 13, 2011 Rise Set
Actual Time 7:04 AM EST 4:49 PM EST
Civil Twilight 6:35 AM EST 5:17 PM EST
Nautical Twilight 6:03 AM EST 5:49 PM EST
Astronomical Twilight 5:32 AM EST 6:20 PM EST
Moon 7:57 PM EST (12/13) 9:16 AM EST (12/13)
Length of Visible Light 10h 41m
Length of Day
9h 44m
Waning Gibbous, 90% of the Moon is Illuminated
Dec 13
Waning Gibbous
Dec 17
Last Quarter
Dec 24
New
Jan 1
First Quarter
Jan 9
Full

Hourly Weather History & Observations

Time (EST) Temp. Windchill Dew Point Humidity Pressure Visibility Wind Dir Wind Speed Gust Speed Precip Events Conditions
12:15 AM 51.4 °F - 49.3 °F 92% 30.39 in 7.0 mi North 5.8 mph - N/A   Scattered Clouds
12:35 AM 51.8 °F - 49.6 °F 92% 30.39 in 7.0 mi North 6.9 mph - N/A   Scattered Clouds
1:15 AM 52.0 °F - 50.0 °F 93% 30.37 in 7.0 mi North 6.9 mph - N/A   Mostly Cloudy
1:35 AM 52.0 °F - 50.2 °F 94% 30.37 in 7.0 mi North 6.9 mph - N/A   Mostly Cloudy
1:55 AM 52.2 °F - 50.4 °F 94% 30.38 in 7.0 mi North 5.8 mph - N/A   Overcast
2:15 AM 52.0 °F - 50.2 °F 94% 30.38 in 7.0 mi North 5.8 mph 16.1 mph N/A   Overcast
2:35 AM 51.8 °F - 49.8 °F 93% 30.38 in 7.0 mi NNW 6.9 mph - N/A   Overcast
2:55 AM 51.1 °F - 49.1 °F 93% 30.38 in 7.0 mi NNW 6.9 mph - N/A   Overcast
3:15 AM 50.4 °F - 48.4 °F 93% 30.38 in 7.0 mi North 8.1 mph - N/A   Overcast
3:35 AM 50.2 °F - 48.2 °F 93% 30.38 in 7.0 mi NNW 6.9 mph - N/A   Overcast
3:55 AM 50.0 °F - 48.0 °F 93% 30.38 in 7.0 mi North 6.9 mph - N/A   Overcast
4:15 AM 50.2 °F - 48.0 °F 92% 30.38 in 7.0 mi North 6.9 mph - N/A   Overcast
4:35 AM 50.2 °F - 47.7 °F 91% 30.38 in 10.0 mi North 6.9 mph - N/A   Overcast
4:55 AM 49.8 °F - 46.8 °F 89% 30.38 in 10.0 mi North 5.8 mph - N/A   Overcast
5:15 AM 49.5 °F - 46.6 °F 90% 30.38 in 10.0 mi North 6.9 mph - N/A   Overcast
5:35 AM 48.9 °F - 46.0 °F 90% 30.38 in 10.0 mi North 9.2 mph - N/A   Overcast
5:55 AM 48.2 °F - 45.1 °F 89% 30.38 in 10.0 mi North 5.8 mph - N/A   Overcast
6:15 AM 48.2 °F - 44.6 °F 87% 30.38 in 10.0 mi North 4.6 mph - N/A   Overcast
6:35 AM 48.0 °F - 44.1 °F 86% 30.38 in 10.0 mi North 8.1 mph - N/A   Overcast
6:55 AM 47.8 °F - 43.7 °F 86% 30.39 in 10.0 mi North 5.8 mph - N/A   Overcast
7:15 AM 48.2 °F - 43.7 °F 84% 30.40 in 10.0 mi North 5.8 mph 18.4 mph N/A   Overcast
7:35 AM 48.0 °F - 43.3 °F 84% 30.40 in 10.0 mi North 10.4 mph - N/A   Overcast
7:55 AM 47.7 °F - 43.3 °F 85% 30.40 in 10.0 mi NNW 5.8 mph - N/A   Overcast
8:15 AM 47.5 °F - 43.0 °F 84% 30.40 in 10.0 mi NNW 6.9 mph - N/A   Mostly Cloudy
8:35 AM 47.8 °F - 42.8 °F 83% 30.41 in 10.0 mi North 6.9 mph - N/A   Mostly Cloudy
8:55 AM 48.4 °F - 42.4 °F 80% 30.40 in 10.0 mi North 10.4 mph 16.1 mph N/A   Scattered Clouds
9:15 AM 49.1 °F - 42.4 °F 78% 30.40 in 10.0 mi NNW 9.2 mph 17.3 mph N/A   Scattered Clouds
9:35 AM 49.6 °F - 42.1 °F 75% 30.40 in 10.0 mi North 8.1 mph - N/A   Scattered Clouds
9:55 AM 50.0 °F - 42.1 °F 74% 30.40 in 10.0 mi NNW 10.4 mph 16.1 mph N/A   Clear
10:15 AM 50.0 °F - 41.9 °F 74% 30.41 in 10.0 mi NNW 9.2 mph 17.3 mph N/A   Clear
10:35 AM 50.4 °F - 41.7 °F 72% 30.41 in 10.0 mi NNW 6.9 mph - N/A   Clear
10:55 AM 50.5 °F - 41.4 °F 71% 30.40 in 10.0 mi North 8.1 mph - N/A   Clear
11:15 AM 50.9 °F - 41.2 °F 69% 30.39 in 10.0 mi North 9.2 mph 16.1 mph N/A   Clear
11:35 AM 51.3 °F - 41.4 °F 69% 30.39 in 10.0 mi North 6.9 mph - N/A   Clear
11:55 AM 51.3 °F - 41.2 °F 68% 30.38 in 10.0 mi North 5.8 mph - N/A   Clear
12:15 PM 51.1 °F - 41.4 °F 69% 30.37 in 10.0 mi NNW 8.1 mph 18.4 mph N/A   Clear
12:35 PM 51.1 °F - 41.0 °F 68% 30.37 in 10.0 mi North 11.5 mph 16.1 mph N/A   Clear
12:55 PM 51.3 °F - 40.5 °F 67% 30.36 in 10.0 mi North 6.9 mph 16.1 mph N/A   Clear
1:15 PM 51.4 °F - 40.3 °F 66% 30.36 in 10.0 mi NNW 8.1 mph - N/A   Clear
1:35 PM 51.3 °F - 38.8 °F 63% 30.35 in 10.0 mi NNW 8.1 mph 18.4 mph N/A   Clear
1:55 PM 51.1 °F - 36.7 °F 58% 30.34 in 10.0 mi North 8.1 mph 18.4 mph N/A   Clear
2:15 PM 51.1 °F - 33.3 °F 51% 30.34 in 10.0 mi NNW 11.5 mph 18.4 mph N/A   Clear
2:35 PM 51.3 °F - 32.4 °F 48% 30.34 in 10.0 mi North 10.4 mph 17.3 mph N/A   Clear
2:55 PM 51.1 °F - 32.2 °F 48% 30.34 in 10.0 mi North 9.2 mph 18.4 mph N/A   Clear
3:15 PM 50.9 °F - 32.2 °F 49% 30.34 in 10.0 mi NNW 10.4 mph - N/A   Clear
3:35 PM 50.5 °F - 31.5 °F 48% 30.33 in 10.0 mi NNW 10.4 mph - N/A   Clear
3:55 PM 50.0 °F - 32.7 °F 52% 30.34 in 10.0 mi North 6.9 mph - N/A   Clear
4:15 PM 49.3 °F - 33.6 °F 55% 30.33 in 10.0 mi North 8.1 mph - N/A   Clear
4:35 PM 48.7 °F - 33.8 °F 56% 30.34 in 10.0 mi North 5.8 mph - N/A   Clear
4:55 PM 48.2 °F - 34.2 °F 58% 30.34 in 10.0 mi North 8.1 mph - N/A   Clear
5:15 PM 47.7 °F - 34.7 °F 61% 30.34 in 10.0 mi NNW 5.8 mph - N/A   Clear
5:35 PM 47.5 °F - 34.7 °F 61% 30.34 in 10.0 mi NNW 4.6 mph - N/A   Clear
5:55 PM 47.5 °F - 34.5 °F 61% 30.35 in 10.0 mi NNW 6.9 mph - N/A   Clear
6:35 PM 47.7 °F - 35.1 °F 62% 30.35 in 10.0 mi NNW 5.8 mph - N/A   Clear
6:55 PM 47.5 °F - 35.6 °F 63% 30.35 in 10.0 mi NNW 5.8 mph - N/A   Clear
7:15 PM 47.3 °F - 35.6 °F 64% 30.35 in 10.0 mi NNW 4.6 mph - N/A   Clear
7:35 PM 47.1 °F - 35.6 °F 64% 30.36 in 10.0 mi NNW 4.6 mph - N/A   Clear
7:55 PM 46.8 °F - 35.2 °F 64% 30.36 in 10.0 mi NNW 3.5 mph - N/A   Clear
8:15 PM 46.4 °F 44.3 °F 35.1 °F 65% 30.36 in 10.0 mi NNW 4.6 mph - N/A   Clear
8:55 PM 45.9 °F 44.6 °F 34.9 °F 66% 30.36 in 10.0 mi NW 3.5 mph - N/A   Clear
9:15 PM 45.5 °F 44.2 °F 35.1 °F 67% 30.36 in 10.0 mi NNW 3.5 mph - N/A   Clear
9:35 PM 45.1 °F 43.7 °F 35.6 °F 69% 30.37 in 10.0 mi NW 3.5 mph - N/A   Clear
9:55 PM 44.8 °F 42.4 °F 36.5 °F 73% 30.36 in 10.0 mi NW 4.6 mph - N/A   Clear
10:15 PM 45.0 °F 43.5 °F 37.0 °F 74% 30.37 in 10.0 mi NW 3.5 mph - N/A   Clear
10:35 PM 45.0 °F 42.6 °F 37.6 °F 75% 30.37 in 10.0 mi NW 4.6 mph - N/A   Clear
10:55 PM 45.0 °F 41.8 °F 37.6 °F 75% 30.37 in 10.0 mi NW 5.8 mph - N/A   Clear
11:15 PM 44.8 °F 42.4 °F 37.2 °F 75% 30.37 in 10.0 mi NW 4.6 mph - N/A   Clear
11:35 PM 44.6 °F 41.4 °F 36.5 °F 73% 30.36 in 10.0 mi NNW 5.8 mph - N/A   Clear
11:55 PM 45.0 °F 41.2 °F 36.3 °F 72% 30.36 in 10.0 mi NNW 6.9 mph - N/A   Clear